Data supplied by UK-AIR on 25/3/2022
All Data GMT hour ending 
Status: R =Ratified P=Provisional,P*=As supplied
,,Glasgow Great Western Road,,,,,,,,,,,,,,,,,,,,,,,
Date,time,"Nitric oxide",status,unit,"Nitrogen dioxide",status,unit,"Nitrogen oxides as nitrogen dioxide",status,unit
 
01-01-2021,01:00,3.24496,R,ugm-3,14.34955,R,ugm-3,19.32509,R,ugm-3
01-01-2021,02:00,3.99742,R,ugm-3,16.83263,R,ugm-3,22.96192,R,ugm-3
01-01-2021,03:00,6.38412,R,ugm-3,26.84683,R,ugm-3,36.63567,R,ugm-3
01-01-2021,04:00,8.92365,R,ugm-3,49.31991,R,ugm-3,63.00266,R,ugm-3
01-01-2021,05:00,16.78917,R,ugm-3,51.11165,R,ugm-3,76.85468,R,ugm-3
01-01-2021,06:00,2.32791,R,ugm-3,28.68067,R,ugm-3,32.25009,R,ugm-3
01-01-2021,07:00,7.26590,R,ugm-3,32.55450,R,ugm-3,43.69539,R,ugm-3
01-01-2021,08:00,21.97406,R,ugm-3,42.89419,R,ugm-3,76.58727,R,ugm-3
01-01-2021,09:00,3.91512,R,ugm-3,29.77685,R,ugm-3,35.77995,R,ugm-3
01-01-2021,10:00,43.80703,R,ugm-3,57.07055,R,ugm-3,124.24038,R,ugm-3
01-01-2021,11:00,15.06087,R,ugm-3,40.39099,R,ugm-3,63.48400,R,ugm-3
01-01-2021,12:00,29.38104,R,ugm-3,46.67258,R,ugm-3,91.72288,R,ugm-3
01-01-2021,13:00,13.86164,R,ugm-3,31.85413,R,ugm-3,53.10835,R,ugm-3
01-01-2021,14:00,27.89964,R,ugm-3,46.32337,R,ugm-3,89.10223,R,ugm-3
01-01-2021,15:00,20.21049,R,ugm-3,44.15425,R,ugm-3,75.14324,R,ugm-3
01-01-2021,16:00,50.08533,R,ugm-3,61.45643,R,ugm-3,138.25286,R,ugm-3
01-01-2021,17:00,69.16713,R,ugm-3,70.86608,R,ugm-3,176.92087,R,ugm-3
01-01-2021,18:00,123.73192,R,ugm-3,84.48632,R,ugm-3,274.20596,R,ugm-3
01-01-2021,19:00,105.42609,R,ugm-3,79.71648,R,ugm-3,241.36756,R,ugm-3
01-01-2021,20:00,47.15781,R,ugm-3,65.30344,R,ugm-3,137.61106,R,ugm-3
01-01-2021,21:00,8.95892,R,ugm-3,45.30811,R,ugm-3,59.04493,R,ugm-3
01-01-2021,22:00,44.01865,R,ugm-3,63.69881,R,ugm-3,131.19314,R,ugm-3
01-01-2021,23:00,42.14927,R,ugm-3,61.75171,R,ugm-3,126.37969,R,ugm-3
01-01-2021,24:00,82.49971,R,ugm-3,68.60722,R,ugm-3,195.10500,R,ugm-3
02-01-2021,01:00,60.57058,R,ugm-3,62.81669,R,ugm-3,155.69028,R,ugm-3
02-01-2021,02:00,31.86437,R,ugm-3,56.31688,R,ugm-3,105.17490,R,ugm-3
02-01-2021,03:00,19.05499,R,ugm-3,53.09355,R,ugm-3,82.31079,R,ugm-3
02-01-2021,04:00,29.59003,R,ugm-3,52.85561,R,ugm-3,98.22635,R,ugm-3
02-01-2021,05:00,20.92867,R,ugm-3,52.63206,R,ugm-3,84.72224,R,ugm-3
02-01-2021,06:00,35.81206,R,ugm-3,53.81849,R,ugm-3,108.72955,R,ugm-3
02-01-2021,07:00,53.62971,R,ugm-3,56.18609,R,ugm-3,138.41717,R,ugm-3
02-01-2021,08:00,54.76099,R,ugm-3,59.97102,R,ugm-3,143.93670,R,ugm-3
02-01-2021,09:00,24.11039,R,ugm-3,52.46921,R,ugm-3,89.43796,R,ugm-3
02-01-2021,10:00,43.30679,R,ugm-3,56.68825,R,ugm-3,123.09107,R,ugm-3
02-01-2021,11:00,56.21044,R,ugm-3,59.62413,R,ugm-3,145.81227,R,ugm-3
02-01-2021,12:00,90.50235,R,ugm-3,69.74161,R,ugm-3,208.50995,R,ugm-3
02-01-2021,13:00,106.83519,R,ugm-3,70.95627,R,ugm-3,234.76794,R,ugm-3
02-01-2021,14:00,191.15086,R,ugm-3,93.80968,R,ugm-3,386.90357,R,ugm-3
02-01-2021,15:00,164.53044,R,ugm-3,100.43810,R,ugm-3,352.71459,R,ugm-3
02-01-2021,16:00,64.87180,R,ugm-3,65.52798,R,ugm-3,164.99669,R,ugm-3
02-01-2021,17:00,127.90527,R,ugm-3,84.14527,R,ugm-3,280.26395,R,ugm-3
02-01-2021,18:00,50.62475,R,ugm-3,66.90263,R,ugm-3,144.52617,R,ugm-3
02-01-2021,19:00,31.56976,R,ugm-3,67.66477,R,ugm-3,116.07107,R,ugm-3
02-01-2021,20:00,112.80976,R,ugm-3,80.49751,R,ugm-3,253.47007,R,ugm-3
02-01-2021,21:00,336.52025,R,ugm-3,109.53931,R,ugm-3,625.52983,R,ugm-3
02-01-2021,22:00,259.94678,R,ugm-3,101.12628,R,ugm-3,499.70579,R,ugm-3
02-01-2021,23:00,211.16036,R,ugm-3,89.76198,R,ugm-3,413.53669,R,ugm-3
02-01-2021,24:00,257.54281,R,ugm-3,93.66607,R,ugm-3,488.55954,R,ugm-3
03-01-2021,01:00,231.73576,R,ugm-3,91.40068,R,ugm-3,446.72389,R,ugm-3
03-01-2021,02:00,130.20668,R,ugm-3,69.89028,R,ugm-3,269.53773,R,ugm-3
03-01-2021,03:00,101.80074,R,ugm-3,63.08162,R,ugm-3,219.17391,R,ugm-3
03-01-2021,04:00,68.59945,R,ugm-3,57.23628,R,ugm-3,162.42064,R,ugm-3
03-01-2021,05:00,42.98096,R,ugm-3,53.99275,R,ugm-3,119.89597,R,ugm-3
03-01-2021,06:00,78.94607,R,ugm-3,52.27133,R,ugm-3,173.32028,R,ugm-3
03-01-2021,07:00,80.75318,R,ugm-3,56.58791,R,ugm-3,180.40772,R,ugm-3
03-01-2021,08:00,152.78969,R,ugm-3,64.68711,R,ugm-3,298.96137,R,ugm-3
03-01-2021,09:00,138.82885,R,ugm-3,68.64328,R,ugm-3,281.51122,R,ugm-3
03-01-2021,10:00,88.72574,R,ugm-3,57.03498,R,ugm-3,193.07922,R,ugm-3
03-01-2021,11:00,99.92276,R,ugm-3,65.04837,R,ugm-3,218.26113,R,ugm-3
03-01-2021,12:00,179.18773,R,ugm-3,75.97053,R,ugm-3,350.72121,R,ugm-3
03-01-2021,13:00,185.45947,R,ugm-3,83.91152,R,ugm-3,368.27874,R,ugm-3
03-01-2021,14:00,202.85737,R,ugm-3,95.62545,R,ugm-3,406.66908,R,ugm-3
03-01-2021,15:00,117.42696,R,ugm-3,72.89451,R,ugm-3,252.94666,R,ugm-3
03-01-2021,16:00,4.92527,R,ugm-3,16.66347,R,ugm-3,24.21544,R,ugm-3
03-01-2021,17:00,1.87798,R,ugm-3,14.30216,R,ugm-3,17.18169,R,ugm-3
03-01-2021,18:00,2.72839,R,ugm-3,22.55553,R,ugm-3,26.73900,R,ugm-3
03-01-2021,19:00,4.53550,R,ugm-3,22.89884,R,ugm-3,29.85318,R,ugm-3
03-01-2021,20:00,90.60372,R,ugm-3,64.84031,R,ugm-3,203.76408,R,ugm-3
03-01-2021,21:00,72.42628,R,ugm-3,56.03983,R,ugm-3,167.09192,R,ugm-3
03-01-2021,22:00,12.82696,R,ugm-3,31.66256,R,ugm-3,51.33029,R,ugm-3
03-01-2021,23:00,79.61930,R,ugm-3,58.59496,R,ugm-3,180.67619,R,ugm-3
03-01-2021,24:00,63.92222,R,ugm-3,51.84383,R,ugm-3,149.85654,R,ugm-3
04-01-2021,01:00,0.47353,R,ugm-3,7.80985,R,ugm-3,8.53592,R,ugm-3
04-01-2021,02:00,13.11677,R,ugm-3,36.19626,R,ugm-3,56.30836,R,ugm-3
04-01-2021,03:00,7.67118,R,ugm-3,30.30757,R,ugm-3,42.06988,R,ugm-3
04-01-2021,04:00,5.07861,R,ugm-3,21.42512,R,ugm-3,29.21220,R,ugm-3
04-01-2021,05:00,2.59258,R,ugm-3,24.37621,R,ugm-3,28.35144,R,ugm-3
04-01-2021,06:00,6.39265,R,ugm-3,22.20776,R,ugm-3,32.00969,R,ugm-3
04-01-2021,07:00,2.66360,R,ugm-3,22.27679,R,ugm-3,26.36092,R,ugm-3
04-01-2021,08:00,58.59930,R,ugm-3,50.56125,R,ugm-3,140.41225,R,ugm-3
04-01-2021,09:00,150.29831,R,ugm-3,76.56983,R,ugm-3,307.02403,R,ugm-3
04-01-2021,10:00,211.88085,R,ugm-3,81.02495,R,ugm-3,405.90438,R,ugm-3
04-01-2021,11:00,46.38223,R,ugm-3,39.92023,R,ugm-3,111.03865,R,ugm-3
04-01-2021,12:00,57.35628,R,ugm-3,44.28992,R,ugm-3,132.23499,R,ugm-3
04-01-2021,13:00,56.36187,R,ugm-3,46.89062,R,ugm-3,133.31094,R,ugm-3
04-01-2021,14:00,95.35703,R,ugm-3,65.05187,R,ugm-3,211.26395,R,ugm-3
04-01-2021,15:00,6.21508,R,ugm-3,23.77119,R,ugm-3,33.30084,R,ugm-3
04-01-2021,16:00,4.43934,R,ugm-3,22.94329,R,ugm-3,29.75018,R,ugm-3
04-01-2021,17:00,5.00758,R,ugm-3,26.59102,R,ugm-3,34.26920,R,ugm-3
04-01-2021,18:00,9.73103,R,ugm-3,39.03848,R,ugm-3,53.95919,R,ugm-3
04-01-2021,19:00,75.53982,R,ugm-3,71.22883,R,ugm-3,187.05494,R,ugm-3
04-01-2021,20:00,5.54030,R,ugm-3,29.00206,R,ugm-3,37.49706,R,ugm-3
04-01-2021,21:00,3.37390,R,ugm-3,23.55478,R,ugm-3,28.72802,R,ugm-3
04-01-2021,22:00,9.62449,R,ugm-3,34.62903,R,ugm-3,49.38638,R,ugm-3
04-01-2021,23:00,31.60811,R,ugm-3,48.37095,R,ugm-3,96.83604,R,ugm-3
04-01-2021,24:00,53.27209,R,ugm-3,55.71685,R,ugm-3,137.39958,R,ugm-3
05-01-2021,01:00,5.26819,R,ugm-3,31.16348,R,ugm-3,39.24125,R,ugm-3
05-01-2021,02:00,42.38279,R,ugm-3,53.45643,R,ugm-3,118.44246,R,ugm-3
05-01-2021,03:00,25.80699,R,ugm-3,43.70969,R,ugm-3,83.27986,R,ugm-3
05-01-2021,04:00,15.98254,R,ugm-3,36.56568,R,ugm-3,61.07190,R,ugm-3
05-01-2021,05:00,0.46275,R,ugm-3,8.50785,R,ugm-3,9.21738,R,ugm-3
05-01-2021,06:00,7.97347,R,ugm-3,21.08613,R,ugm-3,33.31194,R,ugm-3
05-01-2021,07:00,15.37741,R,ugm-3,34.96010,R,ugm-3,58.53846,R,ugm-3
05-01-2021,08:00,3.59518,R,ugm-3,26.23623,R,ugm-3,31.74876,R,ugm-3
05-01-2021,09:00,2.63409,R,ugm-3,26.63182,R,ugm-3,30.67071,R,ugm-3
05-01-2021,10:00,19.86248,R,ugm-3,48.88957,R,ugm-3,79.34495,R,ugm-3
05-01-2021,11:00,10.42958,R,ugm-3,30.09511,R,ugm-3,46.08691,R,ugm-3
05-01-2021,12:00,6.12249,R,ugm-3,22.30718,R,ugm-3,31.69486,R,ugm-3
05-01-2021,13:00,5.65974,R,ugm-3,21.29182,R,ugm-3,29.96997,R,ugm-3
05-01-2021,14:00,6.22927,R,ugm-3,25.48542,R,ugm-3,35.03683,R,ugm-3
05-01-2021,15:00,7.79549,R,ugm-3,23.94636,R,ugm-3,35.89928,R,ugm-3
05-01-2021,16:00,5.48176,R,ugm-3,25.39182,R,ugm-3,33.79707,R,ugm-3
05-01-2021,17:00,12.56533,R,ugm-3,38.94847,R,ugm-3,58.21505,R,ugm-3
05-01-2021,18:00,30.79041,R,ugm-3,54.39552,R,ugm-3,101.60682,R,ugm-3
05-01-2021,19:00,40.65046,R,ugm-3,66.22840,R,ugm-3,128.55823,R,ugm-3
05-01-2021,20:00,36.12978,R,ugm-3,61.13967,R,ugm-3,116.53790,R,ugm-3
05-01-2021,21:00,99.81076,R,ugm-3,65.69662,R,ugm-3,218.73764,R,ugm-3
05-01-2021,22:00,129.35531,R,ugm-3,73.11256,R,ugm-3,271.45460,R,ugm-3
05-01-2021,23:00,164.80877,R,ugm-3,71.63001,R,ugm-3,324.33327,R,ugm-3
05-01-2021,24:00,142.31220,R,ugm-3,65.05033,R,ugm-3,283.25932,R,ugm-3
06-01-2021,01:00,150.88980,R,ugm-3,65.82603,R,ugm-3,297.18715,R,ugm-3
06-01-2021,02:00,103.41564,R,ugm-3,58.54309,R,ugm-3,217.11153,R,ugm-3
06-01-2021,03:00,72.10316,R,ugm-3,51.46690,R,ugm-3,162.02353,R,ugm-3
06-01-2021,04:00,93.40231,R,ugm-3,49.75515,R,ugm-3,192.97002,R,ugm-3
06-01-2021,05:00,113.84521,R,ugm-3,52.70478,R,ugm-3,227.26500,R,ugm-3
06-01-2021,06:00,97.93328,R,ugm-3,55.01353,R,ugm-3,205.17579,R,ugm-3
06-01-2021,07:00,75.59950,R,ugm-3,52.58686,R,ugm-3,168.50447,R,ugm-3
06-01-2021,08:00,100.35932,R,ugm-3,55.99234,R,ugm-3,209.87448,R,ugm-3
06-01-2021,09:00,165.71952,R,ugm-3,65.24865,R,ugm-3,319.34837,R,ugm-3
06-01-2021,10:00,197.65041,R,ugm-3,74.61711,R,ugm-3,377.67684,R,ugm-3
06-01-2021,11:00,228.18989,R,ugm-3,80.39419,R,ugm-3,430.28048,R,ugm-3
06-01-2021,12:00,162.36589,R,ugm-3,86.80920,R,ugm-3,335.76676,R,ugm-3
06-01-2021,13:00,131.79072,R,ugm-3,70.87934,R,ugm-3,272.95564,R,ugm-3
06-01-2021,14:00,163.47187,R,ugm-3,78.30839,R,ugm-3,328.96177,R,ugm-3
06-01-2021,15:00,179.24109,R,ugm-3,76.97458,R,ugm-3,351.80709,R,ugm-3
06-01-2021,16:00,106.38872,R,ugm-3,66.94631,R,ugm-3,230.07341,R,ugm-3
06-01-2021,17:00,63.75474,R,ugm-3,56.86854,R,ugm-3,154.62445,R,ugm-3
06-01-2021,18:00,67.57218,R,ugm-3,54.95780,R,ugm-3,158.56703,R,ugm-3
06-01-2021,19:00,65.39588,R,ugm-3,65.74782,R,ugm-3,166.02011,R,ugm-3
06-01-2021,20:00,42.63398,R,ugm-3,56.90257,R,ugm-3,122.27376,R,ugm-3
06-01-2021,21:00,32.85849,R,ugm-3,53.09671,R,ugm-3,103.47903,R,ugm-3
06-01-2021,22:00,37.35379,R,ugm-3,51.87484,R,ugm-3,109.14985,R,ugm-3
06-01-2021,23:00,35.99806,R,ugm-3,49.03888,R,ugm-3,104.23514,R,ugm-3
06-01-2021,24:00,42.74101,R,ugm-3,52.03977,R,ugm-3,117.57507,R,ugm-3
07-01-2021,01:00,25.03066,R,ugm-3,47.62356,R,ugm-3,86.00338,R,ugm-3
07-01-2021,02:00,24.83996,R,ugm-3,47.33878,R,ugm-3,85.42618,R,ugm-3
07-01-2021,03:00,31.03802,R,ugm-3,47.91823,R,ugm-3,95.50921,R,ugm-3
07-01-2021,04:00,30.32286,R,ugm-3,46.20093,R,ugm-3,92.69534,R,ugm-3
07-01-2021,05:00,52.31409,R,ugm-3,48.35835,R,ugm-3,128.57217,R,ugm-3
07-01-2021,06:00,52.17106,R,ugm-3,46.68371,R,ugm-3,126.67822,R,ugm-3
07-01-2021,07:00,58.17842,R,ugm-3,49.64795,R,ugm-3,138.85361,R,ugm-3
07-01-2021,08:00,63.50637,R,ugm-3,52.95046,R,ugm-3,150.32554,R,ugm-3
07-01-2021,09:00,125.11756,R,ugm-3,65.24597,R,ugm-3,257.09022,R,ugm-3
07-01-2021,10:00,156.29862,R,ugm-3,78.36677,R,ugm-3,318.02131,R,ugm-3
07-01-2021,11:00,151.50703,R,ugm-3,75.70288,R,ugm-3,308.01043,R,ugm-3
07-01-2021,12:00,80.92056,R,ugm-3,62.45058,R,ugm-3,186.52705,R,ugm-3
07-01-2021,13:00,59.78753,R,ugm-3,56.75866,R,ugm-3,148.43159,R,ugm-3
07-01-2021,14:00,72.80347,R,ugm-3,60.71904,R,ugm-3,172.34948,R,ugm-3
07-01-2021,15:00,77.02293,R,ugm-3,63.01558,R,ugm-3,181.11576,R,ugm-3
07-01-2021,16:00,95.04501,R,ugm-3,69.41911,R,ugm-3,215.15275,R,ugm-3
07-01-2021,17:00,73.44712,R,ugm-3,67.63261,R,ugm-3,180.24995,R,ugm-3
07-01-2021,18:00,89.00189,R,ugm-3,68.40365,R,ugm-3,204.87131,R,ugm-3
07-01-2021,19:00,119.43203,R,ugm-3,74.45069,R,ugm-3,257.57724,R,ugm-3
07-01-2021,20:00,114.06831,R,ugm-3,76.39784,R,ugm-3,251.30015,R,ugm-3
07-01-2021,21:00,129.65884,R,ugm-3,79.22445,R,ugm-3,278.03190,R,ugm-3
07-01-2021,22:00,153.29494,R,ugm-3,82.91824,R,ugm-3,317.96720,R,ugm-3
07-01-2021,23:00,129.55157,R,ugm-3,80.20063,R,ugm-3,278.84359,R,ugm-3
07-01-2021,24:00,14.91113,R,ugm-3,27.29922,R,ugm-3,50.16263,R,ugm-3
08-01-2021,01:00,1.67250,R,ugm-3,12.54426,R,ugm-3,15.10872,R,ugm-3
08-01-2021,02:00,5.82985,R,ugm-3,32.12204,R,ugm-3,41.06101,R,ugm-3
08-01-2021,03:00,7.81295,R,ugm-3,47.60577,R,ugm-3,59.58546,R,ugm-3
08-01-2021,04:00,4.76662,R,ugm-3,24.02923,R,ugm-3,31.33794,R,ugm-3
08-01-2021,05:00,0.71679,R,ugm-3,12.67229,R,ugm-3,13.77134,R,ugm-3
08-01-2021,06:00,3.11801,R,ugm-3,23.35820,R,ugm-3,28.13908,R,ugm-3
08-01-2021,07:00,14.72992,R,ugm-3,51.25921,R,ugm-3,73.84476,R,ugm-3
08-01-2021,08:00,73.61375,R,ugm-3,81.33564,R,ugm-3,194.20847,R,ugm-3
08-01-2021,09:00,156.58153,R,ugm-3,105.06275,R,ugm-3,345.15107,R,ugm-3
08-01-2021,10:00,256.22649,R,ugm-3,117.56821,R,ugm-3,510.44334,R,ugm-3
08-01-2021,11:00,124.19482,R,ugm-3,95.11814,R,ugm-3,285.54754,R,ugm-3
08-01-2021,12:00,94.65136,R,ugm-3,93.59129,R,ugm-3,238.72136,R,ugm-3
08-01-2021,13:00,69.42056,R,ugm-3,88.52415,R,ugm-3,194.96752,R,ugm-3
08-01-2021,14:00,58.95551,R,ugm-3,74.85894,R,ugm-3,165.25612,R,ugm-3
08-01-2021,15:00,65.51408,R,ugm-3,73.09793,R,ugm-3,173.55146,R,ugm-3
08-01-2021,16:00,117.73182,R,ugm-3,96.04584,R,ugm-3,276.56545,R,ugm-3
08-01-2021,17:00,174.57281,R,ugm-3,108.05538,R,ugm-3,375.72996,R,ugm-3
08-01-2021,18:00,328.00049,R,ugm-3,128.87398,R,ugm-3,631.80104,R,ugm-3
08-01-2021,19:00,258.75912,R,ugm-3,121.29346,R,ugm-3,518.05192,R,ugm-3
08-01-2021,20:00,196.82896,R,ugm-3,109.55091,R,ugm-3,411.35111,R,ugm-3
08-01-2021,21:00,136.86996,R,ugm-3,95.59924,R,ugm-3,305.46358,R,ugm-3
08-01-2021,22:00,64.58226,R,ugm-3,79.78584,R,ugm-3,178.81059,R,ugm-3
08-01-2021,23:00,37.16526,R,ugm-3,70.69718,R,ugm-3,127.68313,R,ugm-3
08-01-2021,24:00,38.13292,R,ugm-3,68.02066,R,ugm-3,126.49033,R,ugm-3
09-01-2021,01:00,24.85689,R,ugm-3,63.67039,R,ugm-3,101.78375,R,ugm-3
09-01-2021,02:00,16.55536,R,ugm-3,56.77826,R,ugm-3,82.16279,R,ugm-3
09-01-2021,03:00,12.27339,R,ugm-3,53.83995,R,ugm-3,72.65888,R,ugm-3
09-01-2021,04:00,8.48045,R,ugm-3,51.97324,R,ugm-3,64.97641,R,ugm-3
09-01-2021,05:00,4.54437,R,ugm-3,50.00139,R,ugm-3,56.96933,R,ugm-3
09-01-2021,06:00,11.80821,R,ugm-3,56.01396,R,ugm-3,74.11964,R,ugm-3
09-01-2021,07:00,25.44134,R,ugm-3,59.23959,R,ugm-3,98.24909,R,ugm-3
09-01-2021,08:00,41.68658,R,ugm-3,63.38330,R,ugm-3,127.30183,R,ugm-3
09-01-2021,09:00,73.92658,R,ugm-3,66.04947,R,ugm-3,179.40198,R,ugm-3
09-01-2021,10:00,134.93569,R,ugm-3,76.32507,R,ugm-3,283.22357,R,ugm-3
09-01-2021,11:00,173.54497,R,ugm-3,87.13288,R,ugm-3,353.23146,R,ugm-3
09-01-2021,12:00,88.41848,R,ugm-3,77.20976,R,ugm-3,212.78287,R,ugm-3
09-01-2021,13:00,31.30966,R,ugm-3,57.92409,R,ugm-3,105.93157,R,ugm-3
09-01-2021,14:00,11.27148,R,ugm-3,30.05649,R,ugm-3,47.33918,R,ugm-3
09-01-2021,15:00,10.52005,R,ugm-3,35.21221,R,ugm-3,51.34273,R,ugm-3
09-01-2021,16:00,5.22424,R,ugm-3,27.85919,R,ugm-3,35.86958,R,ugm-3
09-01-2021,17:00,6.15459,R,ugm-3,22.80785,R,ugm-3,32.24475,R,ugm-3
09-01-2021,18:00,3.32777,R,ugm-3,21.94845,R,ugm-3,27.05096,R,ugm-3
09-01-2021,19:00,4.04342,R,ugm-3,18.95757,R,ugm-3,25.15739,R,ugm-3
09-01-2021,20:00,4.29390,R,ugm-3,23.22628,R,ugm-3,29.81016,R,ugm-3
09-01-2021,21:00,1.64599,R,ugm-3,14.57239,R,ugm-3,17.09621,R,ugm-3
09-01-2021,22:00,2.07538,R,ugm-3,15.32065,R,ugm-3,18.50286,R,ugm-3
09-01-2021,23:00,1.68178,R,ugm-3,8.56631,R,ugm-3,11.14500,R,ugm-3
09-01-2021,24:00,1.00191,R,ugm-3,6.52495,R,ugm-3,8.06119,R,ugm-3
10-01-2021,01:00,1.19086,R,ugm-3,8.39539,R,ugm-3,10.22134,R,ugm-3
10-01-2021,02:00,0.61925,R,ugm-3,8.98392,R,ugm-3,9.93342,R,ugm-3
10-01-2021,03:00,17.43415,R,ugm-3,39.40081,R,ugm-3,66.13280,R,ugm-3
10-01-2021,04:00,42.47788,R,ugm-3,46.51112,R,ugm-3,111.64297,R,ugm-3
10-01-2021,05:00,1.00032,R,ugm-3,21.95009,R,ugm-3,23.48389,R,ugm-3
10-01-2021,06:00,0.78597,R,ugm-3,13.42507,R,ugm-3,14.63020,R,ugm-3
10-01-2021,07:00,1.32185,R,ugm-3,16.92226,R,ugm-3,18.94907,R,ugm-3
10-01-2021,08:00,30.47404,R,ugm-3,57.03481,R,ugm-3,103.76102,R,ugm-3
10-01-2021,09:00,39.08394,R,ugm-3,69.31452,R,ugm-3,129.24239,R,ugm-3
10-01-2021,10:00,130.72042,R,ugm-3,83.63894,R,ugm-3,284.07413,R,ugm-3
10-01-2021,11:00,162.62349,R,ugm-3,82.06727,R,ugm-3,331.41981,R,ugm-3
10-01-2021,12:00,19.64915,R,ugm-3,42.91473,R,ugm-3,73.04301,R,ugm-3
10-01-2021,13:00,2.78661,R,ugm-3,11.86907,R,ugm-3,16.14180,R,ugm-3
10-01-2021,14:00,3.78693,R,ugm-3,11.19904,R,ugm-3,17.00558,R,ugm-3
10-01-2021,15:00,3.21532,R,ugm-3,12.88529,R,ugm-3,17.81537,R,ugm-3
10-01-2021,16:00,3.21532,R,ugm-3,13.15522,R,ugm-3,18.08530,R,ugm-3
10-01-2021,17:00,2.75088,R,ugm-3,11.16804,R,ugm-3,15.38600,R,ugm-3
10-01-2021,18:00,2.25072,R,ugm-3,10.85522,R,ugm-3,14.30628,R,ugm-3
10-01-2021,19:00,3.35822,R,ugm-3,11.91037,R,ugm-3,17.05956,R,ugm-3
10-01-2021,20:00,2.89378,R,ugm-3,9.00543,R,ugm-3,13.44250,R,ugm-3
10-01-2021,21:00,2.35790,R,ugm-3,6.91187,R,ugm-3,10.52726,R,ugm-3
10-01-2021,22:00,2.46508,R,ugm-3,6.74753,R,ugm-3,10.52726,R,ugm-3
10-01-2021,23:00,1.00032,R,ugm-3,4.13472,R,ugm-3,5.66853,R,ugm-3
10-01-2021,24:00,1.00032,R,ugm-3,3.00102,R,ugm-3,4.53482,R,ugm-3
11-01-2021,01:00,0.80850,R,ugm-3,2.56714,R,ugm-3,3.80681,R,ugm-3
11-01-2021,02:00,0.33291,R,ugm-3,2.29079,R,ugm-3,2.80124,R,ugm-3
11-01-2021,03:00,0.24968,R,ugm-3,1.50261,R,ugm-3,1.88545,R,ugm-3
11-01-2021,04:00,0.35669,R,ugm-3,1.01531,R,ugm-3,1.56223,R,ugm-3
11-01-2021,05:00,0.28535,R,ugm-3,2.47145,R,ugm-3,2.90898,R,ugm-3
11-01-2021,06:00,0.39236,R,ugm-3,3.00768,R,ugm-3,3.60929,R,ugm-3
11-01-2021,07:00,0.96306,R,ugm-3,5.47255,R,ugm-3,6.94923,R,ugm-3
11-01-2021,08:00,2.78218,R,ugm-3,8.93220,R,ugm-3,13.19815,R,ugm-3
11-01-2021,09:00,3.42422,R,ugm-3,8.32484,R,ugm-3,13.57524,R,ugm-3
11-01-2021,10:00,3.88792,R,ugm-3,14.88630,R,ugm-3,20.84769,R,ugm-3
11-01-2021,11:00,4.13760,R,ugm-3,12.13318,R,ugm-3,18.47741,R,ugm-3
11-01-2021,12:00,3.74524,R,ugm-3,10.84933,R,ugm-3,16.59196,R,ugm-3
11-01-2021,13:00,5.45735,R,ugm-3,12.64147,R,ugm-3,21.00930,R,ugm-3
11-01-2021,14:00,7.41915,R,ugm-3,17.82167,R,ugm-3,29.19754,R,ugm-3
11-01-2021,15:00,5.20767,R,ugm-3,16.09491,R,ugm-3,24.07989,R,ugm-3
11-01-2021,16:00,6.31341,R,ugm-3,16.98522,R,ugm-3,26.66565,R,ugm-3
11-01-2021,17:00,10.12999,R,ugm-3,30.41867,R,ugm-3,45.95111,R,ugm-3
11-01-2021,18:00,8.91725,R,ugm-3,27.75311,R,ugm-3,41.42603,R,ugm-3
11-01-2021,19:00,7.81151,R,ugm-3,25.24669,R,ugm-3,37.22417,R,ugm-3
11-01-2021,20:00,5.63570,R,ugm-3,31.22252,R,ugm-3,39.86380,R,ugm-3
11-01-2021,21:00,2.85352,R,ugm-3,17.17267,R,ugm-3,21.54800,R,ugm-3
11-01-2021,22:00,1.35542,R,ugm-3,11.49696,R,ugm-3,13.57524,R,ugm-3
11-01-2021,23:00,1.56944,R,ugm-3,11.43816,R,ugm-3,13.84459,R,ugm-3
11-01-2021,24:00,2.67517,R,ugm-3,18.09256,R,ugm-3,22.19444,R,ugm-3
12-01-2021,01:00,0.94966,R,ugm-3,18.03867,R,ugm-3,19.49480,R,ugm-3
12-01-2021,02:00,1.18707,R,ugm-3,26.49030,R,ugm-3,28.31046,R,ugm-3
12-01-2021,03:00,1.63816,R,ugm-3,32.48206,R,ugm-3,34.99388,R,ugm-3
12-01-2021,04:00,6.48143,R,ugm-3,43.86974,R,ugm-3,53.80779,R,ugm-3
12-01-2021,05:00,6.23214,R,ugm-3,45.16579,R,ugm-3,54.72161,R,ugm-3
12-01-2021,06:00,12.99847,R,ugm-3,46.99307,R,ugm-3,66.92377,R,ugm-3
12-01-2021,07:00,41.34580,R,ugm-3,54.48658,R,ugm-3,117.88260,R,ugm-3
12-01-2021,08:00,65.13477,R,ugm-3,65.79801,R,ugm-3,165.66993,R,ugm-3
12-01-2021,09:00,134.82791,R,ugm-3,89.50523,R,ugm-3,296.23848,R,ugm-3
12-01-2021,10:00,161.78637,R,ugm-3,88.10875,R,ugm-3,336.17773,R,ugm-3
12-01-2021,11:00,96.29548,R,ugm-3,79.40603,R,ugm-3,227.05704,R,ugm-3
12-01-2021,12:00,70.04926,R,ugm-3,72.13110,R,ugm-3,179.53847,R,ugm-3
12-01-2021,13:00,67.73447,R,ugm-3,67.29478,R,ugm-3,171.15284,R,ugm-3
12-01-2021,14:00,37.57091,R,ugm-3,59.41461,R,ugm-3,117.02253,R,ugm-3
12-01-2021,15:00,63.35416,R,ugm-3,72.61355,R,ugm-3,169.75524,R,ugm-3
12-01-2021,16:00,55.66192,R,ugm-3,77.31262,R,ugm-3,162.65971,R,ugm-3
12-01-2021,17:00,122.71975,R,ugm-3,91.03079,R,ugm-3,279.19845,R,ugm-3
12-01-2021,18:00,181.26626,R,ugm-3,95.65281,R,ugm-3,373.59054,R,ugm-3
12-01-2021,19:00,137.99740,R,ugm-3,88.24694,R,ugm-3,299.84000,R,ugm-3
12-01-2021,20:00,78.88109,R,ugm-3,75.73669,R,ugm-3,196.68601,R,ugm-3
12-01-2021,21:00,91.63027,R,ugm-3,80.16252,R,ugm-3,220.66031,R,ugm-3
12-01-2021,22:00,155.76790,R,ugm-3,81.21073,R,ugm-3,320.05152,R,ugm-3
12-01-2021,23:00,167.62678,R,ugm-3,81.46501,R,ugm-3,338.48915,R,ugm-3
12-01-2021,24:00,107.22843,R,ugm-3,72.15687,R,ugm-3,236.57150,R,ugm-3
13-01-2021,01:00,67.08135,R,ugm-3,63.34986,R,ugm-3,166.20650,R,ugm-3
13-01-2021,02:00,34.70216,R,ugm-3,59.07313,R,ugm-3,112.28236,R,ugm-3
13-01-2021,03:00,18.55996,R,ugm-3,52.64255,R,ugm-3,81.10076,R,ugm-3
13-01-2021,04:00,7.78665,R,ugm-3,50.76354,R,ugm-3,62.70290,R,ugm-3
13-01-2021,05:00,4.58666,R,ugm-3,44.83524,R,ugm-3,51.86801,R,ugm-3
13-01-2021,06:00,6.32888,R,ugm-3,46.13309,R,ugm-3,55.83723,R,ugm-3
13-01-2021,07:00,11.66220,R,ugm-3,46.26934,R,ugm-3,64.15113,R,ugm-3
13-01-2021,08:00,19.23552,R,ugm-3,54.34225,R,ugm-3,83.83630,R,ugm-3
13-01-2021,09:00,29.79550,R,ugm-3,60.41031,R,ugm-3,106.09610,R,ugm-3
13-01-2021,10:00,48.03546,R,ugm-3,63.82103,R,ugm-3,137.47438,R,ugm-3
13-01-2021,11:00,43.87547,R,ugm-3,61.67114,R,ugm-3,128.94592,R,ugm-3
13-01-2021,12:00,43.16436,R,ugm-3,56.21765,R,ugm-3,122.40208,R,ugm-3
13-01-2021,13:00,27.16439,R,ugm-3,59.40264,R,ugm-3,101.05413,R,ugm-3
13-01-2021,14:00,26.48884,R,ugm-3,59.95573,R,ugm-3,100.57138,R,ugm-3
13-01-2021,15:00,19.98218,R,ugm-3,56.95205,R,ugm-3,87.59097,R,ugm-3
13-01-2021,16:00,17.31552,R,ugm-3,62.38182,R,ugm-3,88.93192,R,ugm-3
13-01-2021,17:00,25.03106,R,ugm-3,70.29030,R,ugm-3,108.67073,R,ugm-3
13-01-2021,18:00,11.62665,R,ugm-3,60.05521,R,ugm-3,77.88248,R,ugm-3
13-01-2021,19:00,4.15999,R,ugm-3,43.82667,R,ugm-3,50.20523,R,ugm-3
13-01-2021,20:00,4.40888,R,ugm-3,44.14234,R,ugm-3,50.90253,R,ugm-3
13-01-2021,21:00,2.52444,R,ugm-3,35.39231,R,ugm-3,39.26307,R,ugm-3
13-01-2021,22:00,1.24444,R,ugm-3,23.94543,R,ugm-3,25.85355,R,ugm-3
13-01-2021,23:00,0.99555,R,ugm-3,16.71045,R,ugm-3,18.23694,R,ugm-3
13-01-2021,24:00,0.78222,R,ugm-3,12.37104,R,ugm-3,13.57043,R,ugm-3
14-01-2021,01:00,0.52065,R,ugm-3,9.40657,R,ugm-3,10.20488,R,ugm-3
14-01-2021,02:00,0.47332,R,ugm-3,6.69599,R,ugm-3,7.42173,R,ugm-3
14-01-2021,03:00,0.49698,R,ugm-3,6.35641,R,ugm-3,7.11844,R,ugm-3
14-01-2021,04:00,0.35499,R,ugm-3,6.09244,R,ugm-3,6.63674,R,ugm-3
14-01-2021,05:00,0.49698,R,ugm-3,9.72830,R,ugm-3,10.49033,R,ugm-3
14-01-2021,06:00,0.35499,R,ugm-3,11.28408,R,ugm-3,11.82839,R,ugm-3
14-01-2021,07:00,1.31345,R,ugm-3,16.66528,R,ugm-3,18.67922,R,ugm-3
14-01-2021,08:00,3.40788,R,ugm-3,26.35270,R,ugm-3,31.57804,R,ugm-3
14-01-2021,09:00,3.23039,R,ugm-3,29.72914,R,ugm-3,34.68233,R,ugm-3
14-01-2021,10:00,12.10507,R,ugm-3,41.00926,R,ugm-3,59.57010,R,ugm-3
14-01-2021,11:00,14.44799,R,ugm-3,41.91269,R,ugm-3,64.06596,R,ugm-3
14-01-2021,12:00,7.24174,R,ugm-3,44.34505,R,ugm-3,55.44890,R,ugm-3
14-01-2021,13:00,7.63223,R,ugm-3,38.55467,R,ugm-3,50.25726,R,ugm-3
14-01-2021,14:00,9.37167,R,ugm-3,41.93557,R,ugm-3,56.30526,R,ugm-3
14-01-2021,15:00,28.29250,R,ugm-3,58.41782,R,ugm-3,101.79905,R,ugm-3
14-01-2021,16:00,13.88001,R,ugm-3,51.56121,R,ugm-3,72.84359,R,ugm-3
14-01-2021,17:00,21.54774,R,ugm-3,61.80177,R,ugm-3,94.84117,R,ugm-3
14-01-2021,18:00,131.98432,R,ugm-3,86.48568,R,ugm-3,288.85881,R,ugm-3
14-01-2021,19:00,89.88281,R,ugm-3,79.05319,R,ugm-3,216.87158,R,ugm-3
14-01-2021,20:00,107.49019,R,ugm-3,83.63363,R,ugm-3,248.44962,R,ugm-3
14-01-2021,21:00,106.70922,R,ugm-3,82.85079,R,ugm-3,246.46930,R,ugm-3
14-01-2021,22:00,122.96764,R,ugm-3,80.98958,R,ugm-3,269.53733,R,ugm-3
14-01-2021,23:00,121.33470,R,ugm-3,82.58351,R,ugm-3,268.62746,R,ugm-3
14-01-2021,24:00,114.80293,R,ugm-3,79.37879,R,ugm-3,255.40749,R,ugm-3
15-01-2021,01:00,63.18126,R,ugm-3,70.39145,R,ugm-3,167.26804,R,ugm-3
15-01-2021,02:00,58.31390,R,ugm-3,67.31583,R,ugm-3,156.72923,R,ugm-3
15-01-2021,03:00,49.58335,R,ugm-3,63.95075,R,ugm-3,139.97750,R,ugm-3
15-01-2021,04:00,65.07151,R,ugm-3,63.43426,R,ugm-3,163.20917,R,ugm-3
15-01-2021,05:00,74.92438,R,ugm-3,68.67447,R,ugm-3,183.55692,R,ugm-3
15-01-2021,06:00,54.15537,R,ugm-3,58.22217,R,ugm-3,141.25925,R,ugm-3
15-01-2021,07:00,15.06285,R,ugm-3,45.95810,R,ugm-3,69.05414,R,ugm-3
15-01-2021,08:00,22.96641,R,ugm-3,48.68638,R,ugm-3,83.90105,R,ugm-3
15-01-2021,09:00,48.44921,R,ugm-3,56.98455,R,ugm-3,131.27230,R,ugm-3
15-01-2021,10:00,60.71214,R,ugm-3,58.26236,R,ugm-3,151.35301,R,ugm-3
15-01-2021,11:00,59.04637,R,ugm-3,61.24376,R,ugm-3,151.78026,R,ugm-3